| time (UTC) | temp C | wind direction | speed KPH | gust KPH | rain 1hr cm | rain 24hr cm | rain mn cm | humidity % | barometer mb |
| 20260507165946 | 17 | 276 | 1.6 | 1.6 | 0.00 | 0.00 | 0.00 | 46 | 1018.5 |
| 20260507165442 | 17 | 276 | 4.8 | 6.4 | 0.00 | 0.00 | 0.00 | 45 | 1018.6 |
| 20260507164938 | 18 | 289 | 3.2 | 4.8 | 0.00 | 0.00 | 0.00 | 47 | 1018.7 |
| 20260507164435 | 18 | 221 | 6.4 | 8.0 | 0.00 | 0.00 | 0.00 | 45 | 1018.7 |
| 20260507163932 | 17 | 272 | 3.2 | 4.8 | 0.00 | 0.00 | 0.00 | 46 | 1018.5 |
| 20260507163429 | 17 | 291 | 0.0 | 1.6 | 0.00 | 0.00 | 0.00 | 48 | 1018.6 |
| 20260507162926 | 17 | 261 | 3.2 | 4.8 | 0.00 | 0.00 | 0.00 | 50 | 1018.7 |
| 20260507162421 | 17 | 285 | 4.8 | 6.4 | 0.00 | 0.00 | 0.00 | 44 | 1018.8 |
| 20260507161919 | 17 | 342 | 1.6 | 1.6 | 0.00 | 0.00 | 0.00 | 48 | 1018.6 |
| 20260507161414 | 17 | 201 | 1.6 | 1.6 | 0.00 | 0.00 | 0.00 | 48 | 1018.7 |
| 20260507160911 | 17 | 292 | 3.2 | 6.4 | 0.00 | 0.00 | 0.00 | 46 | 1018.8 |
| 20260507160408 | 17 | 295 | 3.2 | 4.8 | 0.00 | 0.00 | 0.00 | 46 | 1018.7 |
| 20260507155904 | 16 | 289 | 6.4 | 6.4 | 0.00 | 0.00 | 0.00 | 43 | 1019.0 |
| 20260507155359 | 17 | 224 | 1.6 | 1.6 | 0.00 | 0.00 | 0.00 | 44 | 1018.9 |
| 20260507154857 | 16 | 265 | 1.6 | 4.8 | 0.00 | 0.00 | 0.00 | 49 | 1019.0 |
| 20260507154354 | 16 | 243 | 8.0 | 8.0 | 0.00 | 0.00 | 0.00 | 44 | 1019.0 |
| 20260507153851 | 16 | 194 | 6.4 | 6.4 | 0.00 | 0.00 | 0.00 | 50 | 1019.0 |
| 20260507153347 | 16 | 182 | 3.2 | 4.8 | 0.00 | 0.00 | 0.00 | 50 | 1019.2 |
| 20260507152844 | 16 | 273 | 3.2 | 4.8 | 0.00 | 0.00 | 0.00 | 46 | 1019.3 |
| 20260507152340 | 15 | 155 | 9.7 | 12.9 | 0.00 | 0.00 | 0.00 | 43 | 1019.4 |
| 20260507151836 | 16 | 202 | 6.4 | 6.4 | 0.00 | 0.00 | 0.00 | 41 | 1019.2 |
| 20260507151332 | 16 | 248 | 3.2 | 4.8 | 0.00 | 0.00 | 0.00 | 48 | 1019.3 |
| 20260507150830 | 16 | 174 | 1.6 | 1.6 | 0.00 | 0.00 | 0.00 | 48 | 1019.3 |
| 20260507150326 | 15 | 183 | 4.8 | 6.4 | 0.00 | 0.00 | 0.00 | 53 | 1019.2 |
| 20260507145822 | 15 | 169 | 3.2 | 6.4 | 0.00 | 0.00 | 0.00 | 52 | 1019.2 |
| 20260507145319 | 15 | 179 | 6.4 | 8.0 | 0.00 | 0.00 | 0.00 | 50 | 1019.4 |
| 20260507144816 | 14 | 202 | 4.8 | 6.4 | 0.00 | 0.00 | 0.00 | 50 | 1019.4 |
| 20260507144313 | 14 | 220 | 3.2 | 6.4 | 0.00 | 0.00 | 0.00 | 53 | 1019.5 |
| 20260507143810 | 13 | 211 | 6.4 | 8.0 | 0.00 | 0.00 | 0.00 | 55 | 1019.2 |
| 20260507143308 | 13 | 113 | 3.2 | 4.8 | 0.00 | 0.00 | 0.00 | 56 | 1019.2 |
| 20260507142803 | 13 | 205 | 4.8 | 6.4 | 0.00 | 0.00 | 0.00 | 55 | 1019.2 |
| 20260507142300 | 13 | 139 | 3.2 | 4.8 | 0.00 | 0.00 | 0.00 | 55 | 1019.0 |
| 20260507141756 | 13 | 176 | 3.2 | 4.8 | 0.00 | 0.00 | 0.00 | 62 | 1019.5 |
| 20260507141254 | 13 | 149 | 3.2 | 4.8 | 0.00 | 0.00 | 0.00 | 58 | 1019.0 |
| 20260507140749 | 13 | 240 | 8.0 | 8.0 | 0.00 | 0.00 | 0.00 | 61 | 1019.4 |
| 20260507140247 | 12 | 164 | 1.6 | 1.6 | 0.00 | 0.00 | 0.00 | 68 | 1019.5 |
| 20260507135744 | 12 | 193 | 4.8 | 6.4 | 0.00 | 0.00 | 0.00 | 65 | 1019.5 |
| 20260507135241 | 12 | 216 | 6.4 | 6.4 | 0.00 | 0.00 | 0.00 | 66 | 1019.3 |
| 20260507134737 | 12 | 222 | 6.4 | 6.4 | 0.00 | 0.00 | 0.00 | 67 | 1019.4 |
| 20260507134234 | 12 | 173 | 3.2 | 4.8 | 0.00 | 0.00 | 0.00 | 68 | 1019.5 |
| 20260507133730 | 11 | 257 | 0.0 | 1.6 | 0.00 | 0.00 | 0.00 | 75 | 1019.5 |
| 20260507133227 | 10 | 167 | 0.0 | 1.6 | 0.00 | 0.00 | 0.00 | 86 | 1019.2 |
| 20260507132724 | 10 | 165 | 0.0 | 1.6 | 0.00 | 0.00 | 0.00 | 97 | 1019.4 |
| 20260507132221 | 8 | 350 | 1.6 | 1.6 | 0.00 | 0.00 | 0.00 | 99 | 1019.3 |
| 20260507131718 | 8 | 355 | 1.6 | 1.6 | 0.00 | 0.00 | 0.00 | 99 | 1019.4 |
| 20260507131215 | 8 | 293 | 0.0 | 0.0 | 0.00 | 0.00 | 0.00 | 99 | 1019.4 |
| 20260507130712 | 7 | 337 | 1.6 | 1.6 | 0.00 | 0.00 | 0.00 | 99 | 1019.4 |
| 20260507130210 | 7 | 204 | 0.0 | 0.0 | 0.00 | 0.00 | 0.00 | 99 | 1019.3 |
| 20260507125708 | 7 | 204 | 0.0 | 0.0 | 0.00 | 0.00 | 0.00 | 99 | 1019.4 |
| 20260507125205 | 6 | 322 | 0.0 | 1.6 | 0.00 | 0.00 | 0.00 | 99 | 1019.4 |
| 20260507124701 | 6 | 323 | 0.0 | 0.0 | 0.00 | 0.00 | 0.00 | 99 | 1019.4 |
| 20260507124159 | 5 | 325 | 1.6 | 1.6 | 0.00 | 0.00 | 0.00 | 99 | 1019.3 |
| 20260507123657 | 6 | 273 | 0.0 | 0.0 | 0.00 | 0.00 | 0.00 | 99 | 1019.0 |
| 20260507123154 | 6 | 273 | 0.0 | 0.0 | 0.00 | 0.00 | 0.00 | 99 | 1019.2 |
| 20260507122649 | 5 | 273 | 0.0 | 0.0 | 0.00 | 0.00 | 0.00 | 99 | 1019.2 |
| 20260507122145 | 3 | 273 | 0.0 | 0.0 | 0.00 | 0.00 | 0.00 | 99 | 1019.2 |
| 20260507121641 | 3 | 297 | 0.0 | 0.0 | 0.00 | 0.00 | 0.00 | 99 | 1019.0 |
| 20260507121137 | 3 | 298 | 0.0 | 0.0 | 0.00 | 0.00 | 0.00 | 99 | 1019.2 |
| 20260507120634 | 3 | 241 | 0.0 | 0.0 | 0.00 | 0.00 | 0.00 | 99 | 1018.8 |
| 20260507120130 | 3 | 241 | 0.0 | 0.0 | 0.00 | 0.00 | 0.00 | 99 | 1018.9 |
| 20260507115627 | 3 | 241 | 0.0 | 0.0 | 0.00 | 0.00 | 0.00 | 99 | 1018.7 |
| 20260507115122 | 3 | 241 | 0.0 | 0.0 | 0.00 | 0.00 | 0.00 | 99 | 1018.8 |
| 20260507114618 | 3 | 240 | 0.0 | 0.0 | 0.00 | 0.00 | 0.00 | 99 | 1018.7 |
| 20260507114116 | 3 | 241 | 0.0 | 0.0 | 0.00 | 0.00 | 0.00 | 99 | 1018.8 |
| 20260507113613 | 3 | 279 | 0.0 | 0.0 | 0.00 | 0.00 | 0.00 | 99 | 1018.8 |
| 20260507113110 | 3 | 279 | 0.0 | 0.0 | 0.00 | 0.00 | 0.00 | 99 | 1018.9 |
| 20260507112608 | 3 | 279 | 0.0 | 0.0 | 0.00 | 0.00 | 0.00 | 99 | 1018.8 |
| 20260507112104 | 3 | 275 | 0.0 | 0.0 | 0.00 | 0.00 | 0.00 | 99 | 1019.0 |
| 20260507111602 | 3 | 275 | 0.0 | 0.0 | 0.00 | 0.00 | 0.00 | 99 | 1019.0 |
| 20260507111058 | 3 | 275 | 0.0 | 0.0 | 0.00 | 0.00 | 0.00 | 99 | 1018.8 |
| 20260507110554 | 3 | 275 | 0.0 | 0.0 | 0.00 | 0.00 | 0.00 | 99 | 1018.8 |
| 20260507110051 | 3 | 275 | 0.0 | 0.0 | 0.00 | 0.00 | 0.00 | 99 | 1018.6 |
| 20260507105548 | 3 | 275 | 0.0 | 0.0 | 0.00 | 0.00 | 0.00 | 99 | 1018.5 |
| 20260507105044 | 3 | 276 | 0.0 | 0.0 | 0.00 | 0.00 | 0.00 | 99 | 1018.6 |
| 20260507104542 | 3 | 276 | 0.0 | 0.0 | 0.00 | 0.00 | 0.00 | 99 | 1018.4 |
| 20260507104038 | 3 | 276 | 0.0 | 0.0 | 0.00 | 0.00 | 0.00 | 99 | 1018.3 |
| 20260507103534 | 3 | 277 | 0.0 | 1.6 | 0.00 | 0.00 | 0.00 | 99 | 1018.4 |
| 20260507103031 | 3 | 275 | 0.0 | 0.0 | 0.00 | 0.00 | 0.00 | 99 | 1018.1 |
| 20260507102527 | 4 | 275 | 0.0 | 0.0 | 0.00 | 0.00 | 0.00 | 99 | 1018.2 |
| 20260507102024 | 4 | 276 | 0.0 | 0.0 | 0.00 | 0.00 | 0.00 | 99 | 1018.3 |
| 20260507101519 | 4 | 277 | 0.0 | 0.0 | 0.00 | 0.00 | 0.00 | 99 | 1018.3 |
| 20260507101016 | 4 | 278 | 0.0 | 0.0 | 0.00 | 0.00 | 0.00 | 99 | 1018.3 |
| 20260507100513 | 3 | 276 | 0.0 | 1.6 | 0.00 | 0.00 | 0.00 | 99 | 1018.4 |
| 20260507100011 | 3 | 264 | 0.0 | 0.0 | 0.00 | 0.00 | 0.00 | 99 | 1018.3 |
| 20260507095509 | 3 | 275 | 0.0 | 0.0 | 0.00 | 0.00 | 0.00 | 99 | 1018.2 |
| 20260507095005 | 3 | 278 | 0.0 | 0.0 | 0.00 | 0.00 | 0.00 | 99 | 1018.4 |
| 20260507094501 | 3 | 285 | 0.0 | 0.0 | 0.00 | 0.00 | 0.00 | 98 | 1018.2 |
| 20260507093959 | 3 | 286 | 0.0 | 0.0 | 0.00 | 0.00 | 0.00 | 98 | 1018.3 |
| 20260507093456 | 3 | 254 | 0.0 | 0.0 | 0.00 | 0.00 | 0.00 | 99 | 1018.4 |
| 20260507092954 | 3 | 250 | 0.0 | 0.0 | 0.00 | 0.00 | 0.00 | 98 | 1018.6 |
| 20260507092450 | 3 | 255 | 0.0 | 0.0 | 0.00 | 0.00 | 0.00 | 98 | 1018.6 |
| 20260507091947 | 3 | 274 | 0.0 | 0.0 | 0.00 | 0.00 | 0.00 | 98 | 1018.8 |
| 20260507091444 | 3 | 279 | 0.0 | 0.0 | 0.00 | 0.00 | 0.00 | 98 | 1018.8 |
| 20260507090940 | 3 | 292 | 1.6 | 1.6 | 0.00 | 0.00 | 0.00 | 98 | 1018.6 |
| 20260507090436 | 3 | 244 | 0.0 | 0.0 | 0.00 | 0.00 | 0.00 | 98 | 1018.4 |
| 20260507085932 | 2 | 244 | 0.0 | 0.0 | 0.00 | 0.00 | 0.00 | 98 | 1018.6 |
| 20260507085430 | 2 | 245 | 0.0 | 0.0 | 0.00 | 0.00 | 0.00 | 98 | 1018.7 |
| 20260507084927 | 3 | 245 | 0.0 | 0.0 | 0.00 | 0.00 | 0.00 | 98 | 1018.8 |
| 20260507084424 | 3 | 244 | 0.0 | 0.0 | 0.00 | 0.00 | 0.00 | 98 | 1018.9 |
| 20260507083921 | 3 | 245 | 0.0 | 0.0 | 0.00 | 0.00 | 0.00 | 98 | 1018.7 |
| 20260507083417 | 3 | 243 | 0.0 | 0.0 | 0.00 | 0.00 | 0.00 | 98 | 1018.7 |
| 20260507082913 | 3 | 270 | 0.0 | 0.0 | 0.00 | 0.00 | 0.00 | 98 | 1018.6 |
| 20260507082409 | 3 | 275 | 0.0 | 0.0 | 0.00 | 0.00 | 0.00 | 98 | 1018.6 |
| 20260507081907 | 3 | 269 | 0.0 | 0.0 | 0.00 | 0.00 | 0.00 | 98 | 1018.6 |
| 20260507081402 | 3 | 278 | 0.0 | 0.0 | 0.00 | 0.00 | 0.00 | 98 | 1018.4 |
| 20260507080859 | 3 | 263 | 0.0 | 0.0 | 0.00 | 0.00 | 0.00 | 98 | 1018.6 |
| 20260507080355 | 3 | 258 | 0.0 | 0.0 | 0.00 | 0.00 | 0.00 | 98 | 1018.7 |
| 20260507075851 | 3 | 247 | 0.0 | 0.0 | 0.00 | 0.00 | 0.00 | 98 | 1018.7 |
| 20260507075347 | 3 | 277 | 0.0 | 0.0 | 0.00 | 0.00 | 0.00 | 98 | 1018.6 |
| 20260507074844 | 3 | 257 | 0.0 | 0.0 | 0.00 | 0.00 | 0.00 | 98 | 1018.2 |
| 20260507074341 | 3 | 257 | 0.0 | 0.0 | 0.00 | 0.00 | 0.00 | 98 | 1018.4 |
| 20260507073838 | 3 | 257 | 0.0 | 0.0 | 0.00 | 0.00 | 0.00 | 98 | 1018.2 |
| 20260507073335 | 3 | 256 | 0.0 | 0.0 | 0.00 | 0.00 | 0.00 | 98 | 1018.4 |
| 20260507072832 | 3 | 256 | 0.0 | 0.0 | 0.00 | 0.00 | 0.00 | 98 | 1018.5 |
| 20260507072329 | 3 | 280 | 0.0 | 0.0 | 0.00 | 0.00 | 0.00 | 98 | 1018.5 |
| 20260507071827 | 3 | 292 | 0.0 | 0.0 | 0.00 | 0.00 | 0.00 | 97 | 1018.6 |
| 20260507071324 | 3 | 292 | 0.0 | 0.0 | 0.00 | 0.00 | 0.00 | 97 | 1018.5 |
| 20260507070820 | 4 | 293 | 0.0 | 0.0 | 0.00 | 0.00 | 0.00 | 97 | 1018.5 |
| 20260507070318 | 4 | 297 | 1.6 | 1.6 | 0.00 | 0.00 | 0.00 | 97 | 1018.6 |
| 20260507065814 | 4 | 199 | 0.0 | 0.0 | 0.00 | 0.00 | 0.00 | 97 | 1018.5 |
| 20260507065310 | 4 | 199 | 0.0 | 0.0 | 0.00 | 0.00 | 0.00 | 97 | 1018.6 |
| 20260507064808 | 4 | 199 | 0.0 | 0.0 | 0.00 | 0.00 | 0.00 | 97 | 1018.7 |
| 20260507064307 | 4 | 199 | 0.0 | 0.0 | 0.00 | 0.00 | 0.00 | 97 | 1018.7 |
| 20260507063804 | 4 | 199 | 0.0 | 0.0 | 0.00 | 0.00 | 0.00 | 97 | 1018.9 |
| 20260507063301 | 5 | 199 | 0.0 | 0.0 | 0.00 | 0.00 | 0.00 | 97 | 1019.2 |
| 20260507062757 | 4 | 199 | 0.0 | 0.0 | 0.00 | 0.00 | 0.00 | 97 | 1018.7 |
| 20260507062255 | 4 | 199 | 0.0 | 0.0 | 0.00 | 0.00 | 0.00 | 97 | 1018.7 |
| 20260507061752 | 5 | 199 | 0.0 | 0.0 | 0.00 | 0.00 | 0.00 | 97 | 1018.7 |
| 20260507061250 | 5 | 199 | 0.0 | 0.0 | 0.00 | 0.00 | 0.00 | 97 | 1018.6 |
| 20260507060748 | 5 | 199 | 0.0 | 0.0 | 0.00 | 0.00 | 0.00 | 97 | 1018.7 |
| 20260507060244 | 5 | 199 | 0.0 | 0.0 | 0.00 | 0.00 | 0.00 | 97 | 1018.7 |
| 20260507055741 | 5 | 199 | 0.0 | 0.0 | 0.00 | 0.00 | 0.00 | 97 | 1018.8 |
| 20260507055236 | 5 | 199 | 0.0 | 0.0 | 0.00 | 0.00 | 0.00 | 97 | 1018.6 |
| 20260507054733 | 5 | 199 | 0.0 | 0.0 | 0.00 | 0.00 | 0.00 | 97 | 1018.5 |
| 20260507054230 | 5 | 199 | 0.0 | 0.0 | 0.00 | 0.00 | 0.00 | 97 | 1018.4 |
| 20260507053727 | 5 | 199 | 0.0 | 0.0 | 0.00 | 0.00 | 0.00 | 97 | 1018.5 |
| 20260507053225 | 5 | 199 | 0.0 | 0.0 | 0.00 | 0.00 | 0.00 | 96 | 1018.6 |
| 20260507052724 | 5 | 199 | 0.0 | 0.0 | 0.00 | 0.00 | 0.00 | 96 | 1018.6 |
| 20260507052219 | 5 | 199 | 0.0 | 0.0 | 0.00 | 0.00 | 0.00 | 96 | 1018.7 |
| 20260507051718 | 5 | 199 | 0.0 | 0.0 | 0.00 | 0.00 | 0.00 | 96 | 1018.9 |
| 20260507051214 | 5 | 199 | 0.0 | 0.0 | 0.00 | 0.00 | 0.00 | 96 | 1018.6 |
| 20260507050711 | 5 | 199 | 0.0 | 0.0 | 0.00 | 0.00 | 0.00 | 96 | 1018.7 |
| 20260507050208 | 5 | 199 | 0.0 | 0.0 | 0.00 | 0.00 | 0.00 | 96 | 1018.6 |
| 20260507045704 | 5 | 199 | 0.0 | 0.0 | 0.00 | 0.00 | 0.00 | 96 | 1018.5 |
| 20260507045200 | 5 | 199 | 0.0 | 0.0 | 0.00 | 0.00 | 0.00 | 96 | 1018.5 |
| 20260507044658 | 5 | 199 | 0.0 | 0.0 | 0.00 | 0.00 | 0.00 | 95 | 1018.8 |
| 20260507044154 | 6 | 199 | 0.0 | 0.0 | 0.00 | 0.00 | 0.00 | 95 | 1018.6 |
| 20260507043651 | 6 | 199 | 0.0 | 0.0 | 0.00 | 0.00 | 0.00 | 95 | 1018.5 |
| 20260507043148 | 6 | 199 | 0.0 | 0.0 | 0.00 | 0.00 | 0.00 | 95 | 1018.5 |
| 20260507042644 | 6 | 199 | 0.0 | 0.0 | 0.00 | 0.00 | 0.00 | 95 | 1018.5 |
| 20260507042139 | 6 | 199 | 0.0 | 0.0 | 0.00 | 0.00 | 0.00 | 95 | 1018.5 |
| 20260507041637 | 6 | 199 | 0.0 | 0.0 | 0.00 | 0.00 | 0.00 | 95 | 1018.4 |
| 20260507041133 | 6 | 199 | 0.0 | 0.0 | 0.00 | 0.00 | 0.00 | 95 | 1018.4 |
| 20260507040630 | 6 | 199 | 0.0 | 0.0 | 0.00 | 0.00 | 0.00 | 94 | 1018.3 |
| 20260507040126 | 6 | 199 | 0.0 | 0.0 | 0.00 | 0.00 | 0.00 | 94 | 1018.5 |
| 20260507035622 | 6 | 199 | 0.0 | 0.0 | 0.00 | 0.00 | 0.00 | 94 | 1018.3 |
| 20260507035118 | 6 | 199 | 0.0 | 0.0 | 0.00 | 0.00 | 0.00 | 94 | 1018.1 |
| 20260507034615 | 6 | 199 | 0.0 | 0.0 | 0.00 | 0.00 | 0.00 | 93 | 1018.4 |
| 20260507034113 | 6 | 199 | 0.0 | 0.0 | 0.00 | 0.00 | 0.00 | 93 | 1018.3 |
| 20260507033611 | 6 | 199 | 0.0 | 0.0 | 0.00 | 0.00 | 0.00 | 93 | 1018.4 |
| 20260507033108 | 6 | 199 | 0.0 | 0.0 | 0.00 | 0.00 | 0.00 | 92 | 1018.1 |
| 20260507032605 | 6 | 199 | 0.0 | 0.0 | 0.00 | 0.00 | 0.00 | 92 | 1018.1 |
| 20260507032101 | 6 | 199 | 0.0 | 0.0 | 0.00 | 0.00 | 0.00 | 92 | 1018.0 |
| 20260507031558 | 6 | 199 | 0.0 | 0.0 | 0.00 | 0.00 | 0.00 | 92 | 1018.1 |
| 20260507031055 | 7 | 199 | 0.0 | 0.0 | 0.00 | 0.00 | 0.00 | 91 | 1018.0 |
| 20260507030551 | 6 | 199 | 0.0 | 0.0 | 0.00 | 0.00 | 0.00 | 91 | 1017.9 |
| 20260507030049 | 7 | 199 | 0.0 | 0.0 | 0.00 | 0.00 | 0.00 | 90 | 1017.9 |
| 20260507025546 | 7 | 199 | 0.0 | 0.0 | 0.00 | 0.00 | 0.00 | 90 | 1017.9 |
| 20260507025043 | 7 | 199 | 0.0 | 0.0 | 0.00 | 0.00 | 0.00 | 90 | 1017.9 |
| 20260507024541 | 7 | 199 | 0.0 | 0.0 | 0.00 | 0.00 | 0.00 | 89 | 1017.8 |
| 20260507024038 | 7 | 199 | 0.0 | 0.0 | 0.00 | 0.00 | 0.00 | 87 | 1017.9 |
| 20260507023533 | 7 | 199 | 0.0 | 0.0 | 0.00 | 0.00 | 0.00 | 87 | 1017.6 |
| 20260507023031 | 7 | 199 | 0.0 | 0.0 | 0.00 | 0.00 | 0.00 | 86 | 1017.7 |
| 20260507022528 | 8 | 199 | 0.0 | 0.0 | 0.00 | 0.00 | 0.00 | 86 | 1017.7 |
| 20260507022028 | 8 | 199 | 0.0 | 0.0 | 0.00 | 0.00 | 0.00 | 86 | 1017.6 |
| 20260507021525 | 8 | 199 | 0.0 | 0.0 | 0.00 | 0.00 | 0.00 | 85 | 1017.4 |
| 20260507021021 | 8 | 199 | 0.0 | 0.0 | 0.00 | 0.00 | 0.00 | 84 | 1017.6 |
| 20260507020519 | 8 | 199 | 0.0 | 0.0 | 0.00 | 0.00 | 0.00 | 84 | 1017.5 |
| 20260507020015 | 8 | 199 | 0.0 | 0.0 | 0.00 | 0.00 | 0.00 | 82 | 1017.4 |
| 20260507015514 | 8 | 199 | 0.0 | 0.0 | 0.00 | 0.00 | 0.00 | 81 | 1017.3 |
| 20260507015011 | 8 | 199 | 0.0 | 0.0 | 0.00 | 0.00 | 0.00 | 80 | 1017.2 |
| 20260507014507 | 9 | 160 | 0.0 | 1.6 | 0.00 | 0.00 | 0.00 | 79 | 1017.2 |
| 20260507014003 | 9 | 148 | 0.0 | 0.0 | 0.00 | 0.00 | 0.00 | 79 | 1017.2 |
| 20260507013500 | 10 | 308 | 0.0 | 1.6 | 0.00 | 0.00 | 0.00 | 78 | 1017.2 |
| 20260507012957 | 10 | 296 | 0.0 | 0.0 | 0.00 | 0.00 | 0.00 | 76 | 1017.3 |
| 20260507012454 | 10 | 296 | 0.0 | 0.0 | 0.00 | 0.00 | 0.00 | 76 | 1017.1 |
| 20260507011951 | 11 | 296 | 0.0 | 0.0 | 0.00 | 0.00 | 0.00 | 73 | 1017.1 |
| 20260507011448 | 11 | 296 | 0.0 | 0.0 | 0.00 | 0.00 | 0.00 | 71 | 1017.0 |
| 20260507010943 | 11 | 296 | 0.0 | 0.0 | 0.00 | 0.00 | 0.00 | 68 | 1016.9 |
| 20260507010438 | 11 | 297 | 0.0 | 0.0 | 0.00 | 0.00 | 0.00 | 65 | 1016.9 |
| 20260507005935 | 12 | 289 | 0.0 | 0.0 | 0.00 | 0.00 | 0.00 | 58 | 1016.8 |
| 20260507005433 | 12 | 281 | 0.0 | 0.0 | 0.00 | 0.00 | 0.00 | 57 | 1016.9 |
| 20260507004930 | 12 | 243 | 0.0 | 0.0 | 0.00 | 0.00 | 0.00 | 56 | 1016.6 |
| 20260507004426 | 13 | 275 | 0.0 | 0.0 | 0.00 | 0.00 | 0.00 | 51 | 1016.8 |
| 20260507003923 | 13 | 312 | 1.6 | 1.6 | 0.00 | 0.00 | 0.00 | 52 | 1016.7 |
| 20260507003418 | 13 | 355 | 0.0 | 1.6 | 0.00 | 0.00 | 0.00 | 50 | 1016.7 |
| 20260507002914 | 13 | 357 | 3.2 | 6.4 | 0.00 | 0.00 | 0.00 | 50 | 1016.7 |
| 20260507002410 | 13 | 247 | 3.2 | 4.8 | 0.00 | 0.00 | 0.00 | 49 | 1016.4 |
| 20260507001908 | 14 | 113 | 3.2 | 4.8 | 0.00 | 0.00 | 0.00 | 49 | 1016.7 |
| 20260507001404 | 14 | 24 | 3.2 | 8.0 | 0.00 | 0.00 | 0.00 | 51 | 1016.6 |
| 20260507000902 | 15 | 258 | 1.6 | 1.6 | 0.00 | 0.00 | 0.00 | 52 | 1016.6 |
| 20260507000357 | 15 | 40 | 1.6 | 1.6 | 0.00 | 0.00 | 0.00 | 48 | 1016.4 |
| 20260506235853 | 15 | 299 | 3.2 | 6.4 | 0.00 | 0.00 | 0.00 | 48 | 1016.5 |
| 20260506235350 | 15 | 204 | 0.0 | 1.6 | 0.00 | 0.00 | 0.00 | 49 | 1016.5 |
| 20260506234845 | 16 | 212 | 3.2 | 4.8 | 0.00 | 0.00 | 0.00 | 47 | 1016.4 |
| 20260506234344 | 16 | 283 | 3.2 | 4.8 | 0.00 | 0.00 | 0.00 | 46 | 1016.3 |
| 20260506233841 | 16 | 277 | 8.0 | 12.9 | 0.00 | 0.00 | 0.00 | 45 | 1016.1 |
| 20260506233337 | 16 | 320 | 6.4 | 8.0 | 0.00 | 0.00 | 0.00 | 46 | 1015.9 |
| 20260506232834 | 16 | 150 | 6.4 | 8.0 | 0.00 | 0.00 | 0.00 | 47 | 1016.1 |
| 20260506232330 | 16 | 174 | 4.8 | 8.0 | 0.00 | 0.00 | 0.00 | 48 | 1015.7 |
| 20260506231826 | 16 | 253 | 1.6 | 1.6 | 0.00 | 0.00 | 0.00 | 46 | 1015.7 |
| 20260506231324 | 16 | 185 | 6.4 | 11.3 | 0.00 | 0.00 | 0.00 | 48 | 1015.6 |
| 20260506230821 | 16 | 230 | 6.4 | 8.0 | 0.00 | 0.00 | 0.00 | 49 | 1015.6 |
| 20260506230318 | 16 | 239 | 9.7 | 16.1 | 0.00 | 0.00 | 0.00 | 46 | 1015.5 |
| 20260506225814 | 16 | 304 | 14.5 | 17.7 | 0.00 | 0.00 | 0.00 | 43 | 1015.4 |
| 20260506225312 | 16 | 288 | 3.2 | 6.4 | 0.00 | 0.00 | 0.00 | 46 | 1015.5 |
| 20260506224809 | 16 | 350 | 11.3 | 12.9 | 0.00 | 0.00 | 0.00 | 45 | 1015.4 |
| 20260506224306 | 16 | 322 | 3.2 | 4.8 | 0.00 | 0.00 | 0.00 | 46 | 1015.3 |
| 20260506223802 | 16 | 350 | 3.2 | 4.8 | 0.00 | 0.00 | 0.00 | 50 | 1015.4 |
| 20260506223257 | 16 | 9 | 8.0 | 11.3 | 0.00 | 0.00 | 0.00 | 45 | 1015.4 |
| 20260506222754 | 17 | 324 | 3.2 | 4.8 | 0.00 | 0.00 | 0.00 | 45 | 1015.1 |
| 20260506222250 | 17 | 248 | 4.8 | 6.4 | 0.00 | 0.00 | 0.00 | 50 | 1015.4 |
| 20260506221748 | 17 | 282 | 6.4 | 8.0 | 0.00 | 0.00 | 0.00 | 45 | 1015.2 |
| 20260506221246 | 16 | 276 | 3.2 | 6.4 | 0.00 | 0.00 | 0.00 | 49 | 1015.4 |
| 20260506220743 | 16 | 165 | 6.4 | 8.0 | 0.00 | 0.00 | 0.00 | 47 | 1015.3 |
| 20260506220238 | 17 | 102 | 3.2 | 11.3 | 0.00 | 0.00 | 0.00 | 46 | 1015.4 |
| 20260506215735 | 17 | 185 | 1.6 | 1.6 | 0.00 | 0.00 | 0.00 | 51 | 1015.5 |
| 20260506215230 | 17 | 267 | 3.2 | 4.8 | 0.00 | 0.00 | 0.00 | 47 | 1015.3 |
| 20260506214727 | 17 | 60 | 4.8 | 11.3 | 0.00 | 0.00 | 0.00 | 45 | 1015.5 |
| 20260506214224 | 16 | 67 | 3.2 | 4.8 | 0.00 | 0.00 | 0.00 | 46 | 1015.6 |
| 20260506213723 | 16 | 284 | 9.7 | 12.9 | 0.00 | 0.00 | 0.00 | 46 | 1015.6 |
| 20260506213220 | 16 | 351 | 4.8 | 8.0 | 0.00 | 0.00 | 0.00 | 44 | 1015.5 |
| 20260506212717 | 16 | 266 | 1.6 | 1.6 | 0.00 | 0.00 | 0.00 | 46 | 1015.5 |
| 20260506212212 | 17 | 81 | 6.4 | 8.0 | 0.00 | 0.00 | 0.00 | 46 | 1015.5 |
| 20260506211708 | 16 | 327 | 1.6 | 1.6 | 0.00 | 0.00 | 0.00 | 46 | 1015.3 |
| 20260506211204 | 17 | 269 | 4.8 | 8.0 | 0.00 | 0.00 | 0.00 | 47 | 1015.5 |
| 20260506210701 | 17 | 121 | 9.7 | 12.9 | 0.00 | 0.00 | 0.00 | 45 | 1015.7 |
| 20260506210158 | 17 | 356 | 6.4 | 8.0 | 0.00 | 0.00 | 0.00 | 45 | 1015.9 |
| 20260506205656 | 16 | 199 | 3.2 | 4.8 | 0.00 | 0.00 | 0.00 | 47 | 1015.8 |
| 20260506205155 | 16 | 167 | 3.2 | 4.8 | 0.00 | 0.00 | 0.00 | 50 | 1015.8 |
| 20260506204653 | 16 | 192 | 6.4 | 8.0 | 0.00 | 0.00 | 0.00 | 48 | 1015.7 |
| 20260506204150 | 16 | 281 | 4.8 | 6.4 | 0.00 | 0.00 | 0.00 | 48 | 1015.9 |
| 20260506203648 | 16 | 83 | 4.8 | 8.0 | 0.00 | 0.00 | 0.00 | 47 | 1016.2 |
| 20260506203145 | 16 | 149 | 3.2 | 6.4 | 0.00 | 0.00 | 0.00 | 50 | 1016.3 |
| 20260506202643 | 16 | 90 | 3.2 | 4.8 | 0.00 | 0.00 | 0.00 | 49 | 1016.3 |
| 20260506202139 | 16 | 138 | 8.0 | 11.3 | 0.00 | 0.00 | 0.00 | 46 | 1016.5 |
| 20260506201636 | 16 | 130 | 9.7 | 11.3 | 0.00 | 0.00 | 0.00 | 47 | 1016.5 |
| 20260506201132 | 15 | 293 | 3.2 | 4.8 | 0.00 | 0.00 | 0.00 | 57 | 1016.5 |
| 20260506200629 | 16 | 350 | 6.4 | 8.0 | 0.00 | 0.00 | 0.00 | 50 | 1016.6 |
| 20260506200126 | 15 | 217 | 9.7 | 11.3 | 0.00 | 0.00 | 0.00 | 52 | 1016.7 |
| 20260506195622 | 15 | 177 | 1.6 | 4.8 | 0.00 | 0.00 | 0.00 | 51 | 1016.9 |
| 20260506195119 | 16 | 80 | 6.4 | 11.3 | 0.00 | 0.00 | 0.00 | 51 | 1016.7 |
| 20260506194616 | 15 | 148 | 9.7 | 11.3 | 0.00 | 0.00 | 0.00 | 55 | 1016.8 |
| 20260506194113 | 15 | 209 | 0.0 | 1.6 | 0.00 | 0.00 | 0.00 | 54 | 1016.6 |
| 20260506193611 | 16 | 76 | 1.6 | 1.6 | 0.00 | 0.00 | 0.00 | 54 | 1016.8 |
| 20260506193108 | 16 | 341 | 4.8 | 8.0 | 0.00 | 0.00 | 0.00 | 52 | 1016.7 |
| 20260506192604 | 16 | 266 | 4.8 | 6.4 | 0.00 | 0.00 | 0.00 | 51 | 1016.8 |
| 20260506192100 | 16 | 287 | 8.0 | 11.3 | 0.00 | 0.00 | 0.00 | 51 | 1016.7 |
| 20260506191557 | 16 | 176 | 11.3 | 16.1 | 0.00 | 0.00 | 0.00 | 52 | 1017.0 |
| 20260506191053 | 16 | 179 | 9.7 | 16.1 | 0.00 | 0.00 | 0.00 | 50 | 1017.0 |
| 20260506190550 | 16 | 299 | 8.0 | 11.3 | 0.00 | 0.00 | 0.00 | 57 | 1016.8 |
| 20260506190047 | 16 | 246 | 3.2 | 4.8 | 0.00 | 0.00 | 0.00 | 54 | 1016.8 |
| 20260506185544 | 16 | 124 | 4.8 | 8.0 | 0.00 | 0.00 | 0.00 | 62 | 1016.9 |
| 20260506185041 | 15 | 74 | 1.6 | 1.6 | 0.00 | 0.00 | 0.00 | 55 | 1017.1 |
| 20260506184538 | 15 | 101 | 8.0 | 8.0 | 0.00 | 0.00 | 0.00 | 54 | 1017.0 |
| 20260506184036 | 15 | 178 | 3.2 | 4.8 | 0.00 | 0.00 | 0.00 | 54 | 1017.3 |
| 20260506183531 | 15 | 286 | 4.8 | 6.4 | 0.00 | 0.00 | 0.00 | 56 | 1017.1 |
| 20260506183028 | 15 | 249 | 4.8 | 6.4 | 0.00 | 0.00 | 0.00 | 54 | 1017.3 |
| 20260506182526 | 15 | 333 | 6.4 | 11.3 | 0.00 | 0.00 | 0.00 | 58 | 1017.5 |
| 20260506182023 | 15 | 308 | 4.8 | 6.4 | 0.00 | 0.00 | 0.00 | 56 | 1017.5 |
| 20260506181521 | 15 | 277 | 1.6 | 4.8 | 0.00 | 0.00 | 0.00 | 59 | 1018.0 |
| 20260506181017 | 15 | 2 | 1.6 | 1.6 | 0.00 | 0.00 | 0.00 | 58 | 1018.1 |
| 20260506180514 | 15 | 255 | 3.2 | 4.8 | 0.00 | 0.00 | 0.00 | 58 | 1018.0 |
| 20260506180010 | 15 | 59 | 0.0 | 1.6 | 0.00 | 0.00 | 0.00 | 58 | 1018.1 |
| 20260506175507 | 14 | 297 | 4.8 | 6.4 | 0.00 | 0.00 | 0.00 | 59 | 1018.2 |
| 20260506175003 | 14 | 299 | 4.8 | 6.4 | 0.00 | 0.00 | 0.00 | 57 | 1018.3 |
| 20260506174502 | 15 | 358 | 6.4 | 8.0 | 0.00 | 0.00 | 0.00 | 61 | 1018.3 |
| 20260506173957 | 14 | 287 | 1.6 | 4.8 | 0.00 | 0.00 | 0.00 | 57 | 1018.3 |
| 20260506173456 | 14 | 168 | 6.4 | 6.4 | 0.00 | 0.00 | 0.00 | 61 | 1018.2 |
| 20260506172952 | 14 | 128 | 8.0 | 11.3 | 0.00 | 0.00 | 0.00 | 56 | 1018.3 |
| 20260506172450 | 15 | 23 | 8.0 | 11.3 | 0.00 | 0.00 | 0.00 | 59 | 1018.3 |
| 20260506171945 | 15 | 166 | 3.2 | 4.8 | 0.00 | 0.00 | 0.00 | 56 | 1018.2 |
| 20260506171443 | 16 | 261 | 6.4 | 8.0 | 0.00 | 0.00 | 0.00 | 54 | 1018.2 |
| 20260506170941 | 15 | 257 | 4.8 | 6.4 | 0.00 | 0.00 | 0.00 | 55 | 1018.2 |
| 20260506170437 | 15 | 185 | 3.2 | 4.8 | 0.00 | 0.00 | 0.00 | 54 | 1018.3 |